This demonstration page uses our WeatherBlox Daily Observations layout. Learn more.

40.92945, -100.16068

Hourly Observations for May 23, 2018

Temp ( °F °C ) Dew Point ( °F °C ) Humidity (%) Winds ( mph kmh ) Pressure ( in mb ) Visibility ( mi km ) Precip ( " mm )
12:15 am 00:15 Clear 72 22 63 17.3 75 75 SSE 12 19 29.85 1011 10 16.0934 0 0
12:35 am 00:35 Clear 72 22.1 64 17.5 75 75 SSE 14 22 29.85 1011 10 16.0934 0 0
12:55 am 00:55 Clear 71 21.8 64 17.5 77 77 SSE 13 20 29.85 1011 10 16.0934 0 0
1:15 am 01:15 Clear 71 21.7 64 17.5 77 77 SSE 13 20 29.85 1011 10 16.0934 0 0
1:35 am 01:35 Clear 70 21.2 64 17.5 80 80 SSE 13 20 29.85 1011 10 16.0934 0 0
1:55 am 01:55 Clear 70 21.2 64 17.5 80 80 SSE 14 22 29.85 1011 10 16.0934 0 0
2:15 am 02:15 Clear 70 21.1 63 17.3 79 79 S 13 20 29.85 1011 10 16.0934 0 0
2:35 am 02:35 Clear 70 21.1 63 17.2 79 79 S 15 24 29.85 1011 10 16.0934 0 0
2:55 am 02:55 Clear 70 21 63 17 78 78 S 13 20 29.85 1011 10 16.0934 0 0
3:15 am 03:15 Clear 69 20.7 62 16.7 78 78 S 14 22 29.85 1011 10 16.0934 0 0
3:35 am 03:35 Partly Cloudy 69 20.7 62 16.6 77 77 S 13 20 29.85 1011 10 16.0934 0 0
3:55 am 03:55 Partly Cloudy 68 20.1 62 16.5 80 80 S 13 20 29.85 1011 10 16.0934 0 0
4:15 am 04:15 Clear 68 20 62 16.4 80 80 S 12 19 29.85 1011 10 16.0934 0 0
4:35 am 04:35 Partly Cloudy 67 19.7 62 16.4 81 81 S 12 19 29.85 1011 10 16.0934 0 0
4:55 am 04:55 Mostly Cloudy 67 19.6 61 16.2 81 81 S 12 19 29.88 1012 10 16.0934 0 0
5:15 am 05:15 Mostly Cloudy 67 19.6 61 16 80 80 S 13 20 29.85 1011 10 16.0934 0 0
5:35 am 05:35 Clear 67 19.2 61 16 82 82 SSE 12 19 29.88 1012 10 16.0934 0 0
5:55 am 05:55 Clear 67 19.5 60 15.8 79 79 S 12 19 29.85 1011 10 16.0934 0 0
6:15 am 06:15 Sunny 68 19.8 60 15.7 77 77 S 10 17 29.88 1012 10 16.0934 0 0
6:35 am 06:35 Sunny 67 19.6 60 15.8 79 79 S 9 15 29.88 1012 10 16.0934 0 0
6:55 am 06:55 Sunny 67 19.5 61 16 80 80 SSE 8 13 29.91 1013 10 16.0934 0 0
7:15 am 07:15 Sunny 67 19.2 61 16.1 82 82 SSE 9 15 29.91 1013 10 16.0934 0 0
7:35 am 07:35 Sunny 67 19.7 61 16.3 81 81 S 10 17 29.94 1014 10 16.0934 0 0
7:55 am 07:55 Sunny 69 20.5 62 16.6 78 78 S 15 24 29.91 1013 10 16.0934 0 0
8:15 am 08:15 Sunny 70 21 62 16.7 77 77 S 14 22 29.91 1013 10 16.0934 0 0
8:35 am 08:35 Sunny 71 21.5 62 16.6 74 74 S 13 20 29.91 1013 10 16.0934 0 0
8:55 am 08:55 Sunny 72 22 62 16.9 73 73 S 13 20 29.91 1013 10 16.0934 0 0
9:15 am 09:15 Sunny 73 22.7 62 16.6 69 69 SSW 16 26 29.91 1013 10 16.0934 0 0
9:35 am 09:35 Sunny 74 23.1 62 16.8 68 68 S 14 22 29.91 1013 10 16.0934 0 0
9:55 am 09:55 Partly Cloudy 75 23.7 64 17.5 68 68 S 15 24 29.88 1012 10 16.0934 0 0
10:15 am 10:15 Mostly Cloudy 75 23.8 64 17.8 69 69 S 10 17 29.88 1012 10 16.0934 0 0
10:35 am 10:35 Mostly Cloudy 75 24 63 17.3 66 66 S 12 19 29.88 1012 10 16.0934 0 0
10:55 am 10:55 Cloudy 76 24.2 63 17.2 65 65 S 10 17 29.88 1012 10 16.0934 0 0
11:15 am 11:15 Cloudy 77 25 63 17 61 61 S 12 19 29.91 1013 10 16.0934 0 0
11:35 am 11:35 Cloudy 76 24.3 61 16.2 61 61 SSW 9 15 29.88 1012 10 16.0934 0 0
11:55 am 11:55 Mostly Cloudy 77 24.8 62 16.4 60 60 S 12 19 29.88 1012 10 16.0934 0 0
12:15 pm 12:15 Partly Cloudy 76 24.4 60 15.6 58 58 SE 10 17 29.88 1012 10 16.0934 0 0
12:35 pm 12:35 Partly Cloudy 77 25.2 61 16.3 58 58 S 9 15 29.88 1012 10 16.0934 0 0
12:55 pm 12:55 Sunny 78 25.5 62 16.7 58 58 SSE 6 9 29.88 1012 10 16.0934 0 0
1:15 pm 13:15 Partly Cloudy 78 25.5 63 17.3 61 61 SSE 7 11 29.88 1012 10 16.0934 0 0
1:35 pm 13:35 Mostly Cloudy 80 26.5 63 17.3 57 57 Calm 29.85 1011 10 16.0934 0 0
1:55 pm 13:55 Mostly Cloudy 82 27.8 65 18.6 57 57 S 10 17 29.85 1011 10 16.0934 0 0
2:15 pm 14:15 Partly Cloudy 81 27 63 17.3 55 55 SSE 10 17 29.83 1010 10 16.0934 0 0
2:35 pm 14:35 Mostly Cloudy 82 27.6 61 16.2 50 50 SSE 15 24 29.83 1010 10 16.0934 0 0
2:55 pm 14:55 Mostly Cloudy 82 27.5 61 16.2 50 50 SSE 16 26 29.83 1010 10 16.0934 0 0
3:15 pm 15:15 Partly Cloudy 84 29 59 14.9 42 42 SSE 18 30 29.83 1010 10 16.0934 0 0
3:35 pm 15:35 Partly Cloudy 85 29.5 60 15.6 43 43 S 22 35 29.8 1009 10 16.0934 0 0
3:55 pm 15:55 Partly Cloudy 85 29.5 61 16.1 44 44 S 22 35 29.8 1009 10 16.0934 0 0
4:15 pm 16:15 Sunny 85 29.7 57 14 38 38 S 17 28 29.8 1009 10 16.0934 0 0
4:35 pm 16:35 Partly Cloudy 85 29.5 60 15.3 42 42 S 22 35 29.77 1008 10 16.0934 0 0
4:55 pm 16:55 Sunny 85 29.2 61 16.1 45 45 S 22 35 29.77 1008 10 16.0934 0 0
5:15 pm 17:15 Sunny 84 29 60 15.5 44 44 S 20 31 29.77 1008 10 16.0934 0 0
5:35 pm 17:35 Sunny 84 29 59 14.8 42 42 S 18 30 29.77 1008 10 16.0934 0 0
5:55 pm 17:55 Sunny 83 28.5 63 17.1 50 50 SE 18 30 29.8 1009 10 16.0934 0 0
6:15 pm 18:15 Sunny 82 28 62 16.6 50 50 SSE 23 37 29.8 1009 10 16.0934 0 0
6:35 pm 18:35 Sunny 82 28 63 17 51 51 SE 16 26 29.8 1009 10 16.0934 0 0
6:55 pm 18:55 Sunny 81 27.1 63 17 54 54 SSE 20 31 29.8 1009 10 16.0934 0 0
7:15 pm 19:15 Sunny 79 26.3 60 15.7 52 52 SE 17 28 29.8 1009 10 16.0934 0 0
7:35 pm 19:35 Sunny 79 26 61 16.2 55 55 SE 20 31 29.83 1010 10 16.0934 0 0
7:55 pm 19:55 Sunny 79 25.9 62 16.5 56 56 SE 16 26 29.83 1010 10 16.0934 0 0
8:15 pm 20:15 Sunny 78 25.5 62 16.8 59 59 SSE 17 28 29.83 1010 10 16.0934 0 0
8:35 pm 20:35 Sunny 78 25.5 62 16.7 58 58 SSE 17 28 29.83 1010 10 16.0934 0 0
8:55 pm 20:55 Sunny 77 25.1 62 16.6 59 59 SSE 20 31 29.8 1009 10 16.0934 0 0
9:15 pm 21:15 Clear 76 24.6 62 16.7 62 62 SSE 20 31 29.83 1010 10 16.0934 0 0
9:35 pm 21:35 Clear 76 24.2 63 17 64 64 SSE 18 30 29.83 1010 10 16.0934 0 0
9:55 pm 21:55 Clear 75 23.7 62 16.8 65 65 SSE 18 30 29.83 1010 10 16.0934 0 0
10:15 pm 22:15 Clear 74 23.2 62 16.7 67 67 SSE 20 31 29.83 1010 10 16.0934 0 0
10:35 pm 22:35 Clear 73 22.7 62 16.5 68 68 SSE 18 30 29.85 1011 10 16.0934 0 0
10:55 pm 22:55 Clear 73 22.5 61 16 67 67 SSE 15 24 29.85 1011 10 16.0934 0 0
11:15 pm 23:15 Clear 71 21.8 60 15.8 69 69 SSE 14 22 29.88 1012 10 16.0934 0 0
11:35 pm 23:35 Clear 70 21.3 60 15.7 71 71 SSE 12 19 29.88 1012 10 16.0934 0 0
11:55 pm 23:55 Clear 70 21 60 15.7 72 72 SSE 12 19 29.88 1012 10 16.0934 0 0

Powered by AerisWeather